Tracking 19638 objects as of 21-Apr-2019
HD Live streaming from Space Station
objects crossing your sky now

FLOCK 3P 31

Track FLOCK 3P 31 now!
10-day predictions
FLOCK 3P 31 is classified as:


NORAD ID: 42049
Int'l Code: 2017-008DF
Perigee: 491.9 km
Apogee: 502.4 km
Inclination: 97.4 °
Period: 94.4 minutes
Semi major axis: 6868 km
RCS: Unknown
Launch date: February 15, 2017
Source: United States (US)
Launch site: SRIHARIKOTA (SRI)
aabbcc
Your satellite tracking list
Your tracking list is empty




NASA's NSSDC Master Catalog

Two Line Element Set (TLE):
1 42049U 17008DF  19111.18262926  .00001435  00000-0  59908-4 0  9992
2 42049  97.4111 178.7748 0007638   2.1851 357.9419 15.25258246119668
Source of the keplerian elements: AFSPC